Location: G�migny
(47.9646°N, 1.6950°E)
Time: 19:01:12
(UTC+00:00)

Cosmos 1943 Rocket - Pass Details

Date: 23 October 2019
Orbit: 810 x 845 km, 71.0° (Epoch: 20 November)

Event Time Altitude Azimuth Distance (km) Brightness Sun altitude
Rises 19:16:42 0° 190° (S) 3,341 5.3 -25.0°
Reaches altitude 10° 19:19:09 10° 185° (S) 2,418 4.5 -25.4°
Enters shadow 19:20:35 18° 180° (S) 1,909 3.9 -25.7°
